Barcelona, Spain

11:48 AM CEST on June 26, 2017 (GMT +0200)
El Prat

Weather History for LEBL - July, 2013

Change the Weather History Date:

Friday, July 26, 2013

  Actual Average Record
Temperature  
Mean Temperature 80 °F -  
Max Temperature 88 °F 80 °F 89 °F (2003)
Min Temperature 73 °F 68 °F 68 °F (2000)
Cooling Degree Days 16    
Growing Degree Days 30 (Base 50)    
Moisture  
Dew Point 68 °F    
Average Humidity 66    
Maximum Humidity 89    
Minimum Humidity 40    
Precipitation  
Precipitation 0.00 in 0.08 in - ()
Sea Level Pressure  
Sea Level Pressure 29.94 in    
Wind  
Wind Speed 7 mph ()    
Max Wind Speed 13 mph    
Max Gust Speed -    
Visibility 7.1 miles    
Events      
Averages and records for this station are not official NWS values.
T = Trace of Precipitation, MM = Missing Value Source: Averaged Metar Reports

Daily Weather History Graph

Daily Weather History Graph

Search for Another Location

Airport or City:

Trip Planner

Search our weather history database for the weather conditions in past years. The results will help you decide how hot, cold, wet, or windy it might be!

Date:

Astronomy

Jul. 26, 2013 Rise Set
Actual Time 6:41 AM CEST 9:14 PM CEST
Civil Twilight 6:09 AM CEST 9:46 PM CEST
Nautical Twilight 5:30 AM CEST 10:25 PM CEST
Astronomical Twilight 4:45 AM CEST 11:09 PM CEST
Moon 11:16 PM CEST 11:04 AM CEST
Length of Visible Light 15h 36m
Length of Day
14h 33m
Waning Gibbous, 82% of the Moon is Illuminated
Jul 26
Waning Gibbous
Jul 29
Last Quarter
Aug 6
New
Aug 14
First Quarter
Aug 21
Full

Hourly Weather History & Observations

Time (CEST) Temp. Heat Index Dew Point Humidity Pressure Visibility Wind Dir Wind Speed Gust Speed Precip Events Conditions
12:00 AM 78.8 °F - 75.2 °F 89% 29.98 in - Variable 2.3 mph - N/A   Clear
12:30 AM 77.0 °F - 73.4 °F 89% 29.98 in - South 3.5 mph - N/A   Clear
1:00 AM 77.0 °F - 73.4 °F 89% 29.98 in - SW 4.6 mph - N/A   Clear
1:30 AM 77.0 °F - 69.8 °F 78% 29.98 in - WNW 4.6 mph - N/A   Clear
2:00 AM 76 °F - 71 °F 80% 29.97 in 14 mi NNW 2.3 mph - -  
2:00 AM 77.0 °F - 68.0 °F 74% 29.95 in - WNW 3.5 mph - N/A   Clear
3:00 AM 75.2 °F - 64.4 °F 69% 29.95 in - NW 6.9 mph - N/A   Clear
3:30 AM 75.2 °F - 64.4 °F 69% 29.95 in - NW 5.8 mph - N/A   Clear
4:00 AM 75.2 °F - 64.4 °F 69% 29.95 in - NW 5.8 mph - N/A   Clear
4:30 AM 75.2 °F - 64.4 °F 69% 29.95 in 6.2 mi NW 8.1 mph - N/A   Partly Cloudy
5:00 AM 75.2 °F - 66.2 °F 73% 29.95 in 6.2 mi NW 8.1 mph - N/A   Partly Cloudy
5:30 AM 73.4 °F - 66.2 °F 78% 29.95 in 6.2 mi NW 8.1 mph - N/A   Partly Cloudy
6:00 AM 73.4 °F - 64.4 °F 73% 29.95 in 6.2 mi NNW 8.1 mph - N/A   Partly Cloudy
6:30 AM 73.4 °F - 64.4 °F 73% 29.95 in 6.2 mi NNW 6.9 mph - N/A   Partly Cloudy
7:00 AM 73.4 °F - 62.6 °F 69% 29.95 in 6.2 mi NW 8.1 mph - N/A   Partly Cloudy
7:30 AM 73.4 °F - 62.6 °F 69% 29.95 in 6.2 mi NW 8.1 mph - N/A   Partly Cloudy
8:00 AM 73.4 °F - 60.8 °F 65% 29.95 in 6.2 mi NW 8.1 mph - N/A   Partly Cloudy
8:30 AM 75.2 °F - 60.8 °F 61% 29.95 in 6.2 mi NNW 10.4 mph - N/A   Partly Cloudy
9:00 AM 77.0 °F - 60.8 °F 57% 29.95 in 6.2 mi NNW 9.2 mph - N/A   Partly Cloudy
9:30 AM 78.8 °F - 57.2 °F 47% 29.95 in 6.2 mi NNW 6.9 mph - N/A   Partly Cloudy
10:00 AM 82.4 °F 82.0 °F 57.2 °F 42% 29.95 in 6.2 mi North 3.5 mph - N/A   Partly Cloudy
10:30 AM 84.2 °F 83.5 °F 57.2 °F 40% 29.95 in 6.2 mi East 3.5 mph - N/A   Partly Cloudy
11:00 AM 86.0 °F 86.1 °F 60.8 °F 43% 29.95 in 6.2 mi ESE 6.9 mph - N/A   Partly Cloudy
11:30 AM 86.0 °F 88.2 °F 66.2 °F 51% 29.95 in 6.2 mi ESE 8.1 mph - N/A   Partly Cloudy
12:00 PM 86.0 °F 87.3 °F 64.4 °F 48% 29.95 in 6.2 mi ESE 9.2 mph - N/A   Partly Cloudy
12:30 PM 86.0 °F 87.3 °F 64.4 °F 48% 29.95 in 6.2 mi ESE 9.2 mph - N/A   Partly Cloudy
1:00 PM 86.0 °F 90.4 °F 69.8 °F 58% 29.95 in 6.2 mi ESE 10.4 mph - N/A   Partly Cloudy
1:30 PM 86.0 °F 88.2 °F 66.2 °F 51% 29.95 in 6.2 mi East 9.2 mph - N/A   Partly Cloudy
2:00 PM 85 °F - 73 °F 61% 29.96 in 19 mi ESE 10.4 mph - -   Scattered Clouds
2:00 PM 86.0 °F 90.4 °F 69.8 °F 58% 29.95 in 6.2 mi East 9.2 mph - N/A   Partly Cloudy
2:30 PM 86.0 °F 93.4 °F 73.4 °F 66% 29.95 in 6.2 mi ESE 11.5 mph - N/A   Partly Cloudy
3:00 PM 86.0 °F 95.1 °F 75.2 °F 70% 29.95 in 6.2 mi ESE 10.4 mph - N/A   Partly Cloudy
3:30 PM 86.0 °F 91.8 °F 71.6 °F 62% 29.95 in 6.2 mi ESE 9.2 mph - N/A   Partly Cloudy
4:00 PM 87.8 °F 92.6 °F 69.8 °F 55% 29.95 in 6.2 mi ESE 8.1 mph - N/A   Partly Cloudy
4:30 PM 86.0 °F 90.4 °F 69.8 °F 58% 29.92 in 6.2 mi SE 9.2 mph - N/A   Partly Cloudy
5:00 PM 87.8 °F 90.4 °F 66.2 °F 49% 29.92 in 6.2 mi East 10.4 mph - N/A   Partly Cloudy
5:30 PM 87.8 °F 90.4 °F 66.2 °F 49% 29.92 in 6.2 mi East 9.2 mph - N/A   Partly Cloudy
6:00 PM 86.0 °F 89.4 °F 68.0 °F 55% 29.92 in 6.2 mi East 11.5 mph - N/A   Partly Cloudy
6:30 PM 86.0 °F 91.8 °F 71.6 °F 62% 29.89 in 6.2 mi East 10.4 mph - N/A   Partly Cloudy
7:00 PM 84.2 °F 90.9 °F 73.4 °F 70% 29.89 in 6.2 mi ENE 11.5 mph - N/A   Partly Cloudy
7:30 PM 84.2 °F 90.9 °F 73.4 °F 70% 29.89 in 6.2 mi ENE 11.5 mph - N/A   Partly Cloudy
8:00 PM 83 °F - 75 °F 71% 29.89 in 19 mi ENE 11.5 mph - -   Scattered Clouds
8:00 PM 84.2 °F 90.9 °F 73.4 °F 70% 29.89 in 6.2 mi ENE 11.5 mph - N/A   Partly Cloudy
8:30 PM 82.4 °F 88.2 °F 73.4 °F 74% 29.89 in 6.2 mi ENE 10.4 mph - N/A   Partly Cloudy
9:00 PM 82.4 °F 89.5 °F 75.2 °F 79% 29.89 in 6.2 mi ENE 11.5 mph - N/A   Partly Cloudy
9:30 PM 82.4 °F 88.2 °F 73.4 °F 74% 29.89 in - ENE 10.4 mph - N/A   Clear
10:00 PM 82.4 °F 88.2 °F 73.4 °F 74% 29.89 in - ENE 12.7 mph - N/A   Clear
10:30 PM 80.6 °F 85.4 °F 73.4 °F 79% 29.89 in - ENE 12.7 mph - N/A   Clear
11:00 PM 80.6 °F 85.4 °F 73.4 °F 79% 29.89 in - NE 12.7 mph - N/A   Clear
11:30 PM 80.6 °F 86.2 °F 75.2 °F 84% 29.89 in - ENE 12.7 mph - N/A   Clear